Time,TemperatureF,DewpointF,PressureIn,WindDirection,WindDirectionDegrees,WindSpeedMPH,WindSpeedGustMPH,Humidity,HourlyPrecipIn,Conditions,Clouds,dailyrainin,SoftwareType,DateUTC
2013-07-27 00:01:00,67.1,46.2,30.09,North,0,0.0,1.3,47,0.00,,,0.00,WUHU216HW,2013-07-27 07:01:00,
2013-07-27 00:06:00,67.0,46.0,30.09,NE,45,1.8,3.1,47,0.00,,,0.00,WUHU216HW,2013-07-27 07:06:00,
2013-07-27 00:11:00,66.6,45.7,30.09,NNE,23,0.0,3.1,47,0.00,,,0.00,WUHU216HW,2013-07-27 07:11:00,
2013-07-27 00:16:00,66.4,46.2,30.09,North,0,0.4,1.8,48,0.00,,,0.00,WUHU216HW,2013-07-27 07:16:00,
2013-07-27 00:21:00,66.2,46.0,30.09,WSW,248,1.3,2.5,48,0.00,,,0.00,WUHU216HW,2013-07-27 07:21:00,
2013-07-27 00:26:00,65.9,45.6,30.09,NNW,338,0.2,2.7,48,0.00,,,0.00,WUHU216HW,2013-07-27 07:26:00,
2013-07-27 00:31:00,65.7,46.0,30.09,North,0,0.4,2.7,49,0.00,,,0.00,WUHU216HW,2013-07-27 07:31:00,
2013-07-27 00:36:00,65.5,46.4,30.09,NW,315,0.4,1.6,50,0.00,,,0.00,WUHU216HW,2013-07-27 07:36:00,
2013-07-27 00:40:00,65.3,45.7,30.10,NNW,338,0.0,1.8,49,0.00,,,0.00,WUHU216HW,2013-07-27 07:40:00,
2013-07-27 00:45:00,65.2,46.1,30.10,NNE,23,1.8,1.8,50,0.00,,,0.00,WUHU216HW,2013-07-27 07:45:00,
2013-07-27 00:50:00,64.8,45.7,30.10,NW,315,0.0,2.2,50,0.00,,,0.00,WUHU216HW,2013-07-27 07:50:00,
2013-07-27 00:55:00,64.8,45.7,30.10,NW,315,0.2,2.2,50,0.00,,,0.00,WUHU216HW,2013-07-27 07:55:00,
2013-07-27 01:00:00,64.4,45.8,30.10,North,0,0.4,0.9,51,0.00,,,0.00,WUHU216HW,2013-07-27 08:00:00,
2013-07-27 01:05:00,64.1,46.0,30.10,North,0,0.4,0.9,52,0.00,,,0.00,WUHU216HW,2013-07-27 08:05:00,
2013-07-27 01:10:00,63.9,45.8,30.10,NNE,23,1.1,1.1,52,0.00,,,0.00,WUHU216HW,2013-07-27 08:10:00,
2013-07-27 01:15:00,63.7,46.2,30.10,North,0,0.2,1.1,53,0.00,,,0.00,WUHU216HW,2013-07-27 08:15:00,
2013-07-27 01:20:00,63.4,46.4,30.10,North,0,0.0,1.3,54,0.00,,,0.00,WUHU216HW,2013-07-27 08:20:00,
2013-07-27 01:25:00,63.2,46.2,30.10,NNW,338,0.4,1.3,54,0.00,,,0.00,WUHU216HW,2013-07-27 08:25:00,
2013-07-27 01:30:00,63.0,46.0,30.10,NNW,338,0.4,0.7,54,0.00,,,0.00,WUHU216HW,2013-07-27 08:30:00,
2013-07-27 01:35:00,62.8,45.8,30.10,NNE,23,0.0,0.7,54,0.00,,,0.00,WUHU216HW,2013-07-27 08:35:00,
2013-07-27 01:40:00,62.6,45.7,30.11,North,0,0.4,0.4,54,0.00,,,0.00,WUHU216HW,2013-07-27 08:40:00,
2013-07-27 01:45:00,62.6,45.7,30.10,North,0,0.4,0.4,54,0.00,,,0.00,WUHU216HW,2013-07-27 08:45:00,
2013-07-27 01:50:00,62.5,45.6,30.10,NW,315,0.0,0.4,54,0.00,,,0.00,WUHU216HW,2013-07-27 08:50:00,
2013-07-27 01:55:00,62.3,45.8,30.10,North,0,0.2,0.4,55,0.00,,,0.00,WUHU216HW,2013-07-27 08:55:00,
2013-07-27 02:00:00,61.9,46.5,30.10,NW,315,0.0,0.4,57,0.00,,,0.00,WUHU216HW,2013-07-27 09:00:00,
2013-07-27 02:05:00,61.4,47.0,30.10,NNW,338,0.0,0.4,59,0.00,,,0.00,WUHU216HW,2013-07-27 09:05:00,
2013-07-27 02:10:00,61.2,47.4,30.10,NW,315,0.4,0.7,60,0.00,,,0.00,WUHU216HW,2013-07-27 09:10:00,
2013-07-27 02:15:00,60.8,47.4,30.10,NNW,338,0.0,0.7,61,0.00,,,0.00,WUHU216HW,2013-07-27 09:15:00,
2013-07-27 02:20:00,60.7,46.8,30.10,NNW,338,0.0,0.4,60,0.00,,,0.00,WUHU216HW,2013-07-27 09:20:00,
2013-07-27 02:25:00,60.5,46.6,30.10,NNE,23,0.0,0.7,60,0.00,,,0.00,WUHU216HW,2013-07-27 09:25:00,
2013-07-27 02:30:00,60.3,46.0,30.11,NW,315,0.0,0.7,59,0.00,,,0.00,WUHU216HW,2013-07-27 09:30:00,
2013-07-27 02:35:00,60.3,46.0,30.11,NW,315,0.0,0.4,59,0.00,,,0.00,WUHU216HW,2013-07-27 09:35:00,
2013-07-27 02:40:00,60.3,46.0,30.10,NW,315,0.0,0.0,59,0.00,,,0.00,WUHU216HW,2013-07-27 09:40:00,
2013-07-27 02:45:00,60.1,45.3,30.11,NNW,338,0.0,0.0,58,0.00,,,0.00,WUHU216HW,2013-07-27 09:45:00,
2013-07-27 02:50:00,60.1,45.3,30.11,NNW,338,0.0,0.0,58,0.00,,,0.00,WUHU216HW,2013-07-27 09:50:00,
2013-07-27 02:55:00,60.1,45.3,30.11,NNW,338,0.0,0.2,58,0.00,,,0.00,WUHU216HW,2013-07-27 09:55:00,
2013-07-27 03:00:00,59.9,45.6,30.11,NNW,338,0.0,0.2,59,0.00,,,0.00,WUHU216HW,2013-07-27 10:00:00,
2013-07-27 03:05:00,59.6,46.2,30.11,NNW,338,0.0,0.2,61,0.00,,,0.00,WUHU216HW,2013-07-27 10:05:00,
2013-07-27 03:10:00,59.4,46.0,30.11,North,0,0.0,0.2,61,0.00,,,0.00,WUHU216HW,2013-07-27 10:10:00,
2013-07-27 03:15:00,59.2,45.4,30.11,NNW,338,0.0,0.4,60,0.00,,,0.00,WUHU216HW,2013-07-27 10:15:00,
2013-07-27 03:20:00,59.2,45.4,30.11,NNW,338,0.0,0.4,60,0.00,,,0.00,WUHU216HW,2013-07-27 10:20:00,
2013-07-27 03:25:00,59.0,45.2,30.11,NNW,338,0.0,0.0,60,0.00,,,0.00,WUHU216HW,2013-07-27 10:25:00,
2013-07-27 03:30:00,58.9,44.6,30.11,NW,315,0.0,0.2,59,0.00,,,0.00,WUHU216HW,2013-07-27 10:30:00,
2013-07-27 03:35:00,58.7,44.4,30.11,West,270,0.4,0.4,59,0.00,,,0.00,WUHU216HW,2013-07-27 10:35:00,
2013-07-27 03:40:00,58.3,44.6,30.11,West,270,0.0,0.4,60,0.00,,,0.00,WUHU216HW,2013-07-27 10:40:00,
2013-07-27 03:45:00,58.1,44.4,30.11,West,270,0.0,0.4,60,0.00,,,0.00,WUHU216HW,2013-07-27 10:45:00,
2013-07-27 03:50:00,58.0,44.2,30.11,West,270,0.0,0.0,60,0.00,,,0.00,WUHU216HW,2013-07-27 10:50:00,
2013-07-27 03:55:00,57.8,44.5,30.11,West,270,0.0,0.2,61,0.00,,,0.00,WUHU216HW,2013-07-27 10:55:00,
2013-07-27 04:00:00,57.6,44.3,30.11,WNW,293,0.0,0.2,61,0.00,,,0.00,WUHU216HW,2013-07-27 11:00:00,
2013-07-27 04:05:00,57.4,44.6,30.11,North,0,0.0,0.2,62,0.00,,,0.00,WUHU216HW,2013-07-27 11:05:00,
2013-07-27 04:10:00,57.4,44.6,30.11,West,270,0.0,0.2,62,0.00,,,0.00,WUHU216HW,2013-07-27 11:10:00,
2013-07-27 04:15:00,57.2,44.4,30.11,North,0,0.0,0.4,62,0.00,,,0.00,WUHU216HW,2013-07-27 11:15:00,
2013-07-27 04:20:00,57.2,44.7,30.11,NNW,338,0.0,0.4,63,0.00,,,0.00,WUHU216HW,2013-07-27 11:20:00,
2013-07-27 04:25:00,57.1,44.6,30.11,NW,315,0.4,0.4,63,0.00,,,0.00,WUHU216HW,2013-07-27 11:25:00,
2013-07-27 04:30:00,57.1,44.6,30.11,NW,315,0.0,0.4,63,0.00,,,0.00,WUHU216HW,2013-07-27 11:30:00,
2013-07-27 04:35:00,56.9,44.8,30.11,North,0,0.0,0.4,64,0.00,,,0.00,WUHU216HW,2013-07-27 11:35:00,
2013-07-27 04:40:00,56.9,44.8,30.10,NNW,338,0.0,0.4,64,0.00,,,0.00,WUHU216HW,2013-07-27 11:40:00,
2013-07-27 04:45:00,56.7,45.8,30.10,West,270,0.0,0.7,67,0.00,,,0.00,WUHU216HW,2013-07-27 11:45:00,
2013-07-27 04:50:00,56.5,45.6,30.10,NNW,338,0.0,0.7,67,0.00,,,0.00,WUHU216HW,2013-07-27 11:50:00,
2013-07-27 04:55:00,56.3,46.3,30.10,NNW,338,0.0,0.7,69,0.00,,,0.00,WUHU216HW,2013-07-27 11:55:00,
2013-07-27 05:00:00,56.3,47.1,30.11,NNW,338,0.0,2.2,71,0.00,,,0.00,WUHU216HW,2013-07-27 12:00:00,
2013-07-27 05:05:00,56.3,47.1,30.11,SW,225,0.2,2.2,71,0.00,,,0.00,WUHU216HW,2013-07-27 12:05:00,
2013-07-27 05:10:00,56.3,46.7,30.11,North,0,0.7,1.8,70,0.00,,,0.00,WUHU216HW,2013-07-27 12:10:00,
2013-07-27 05:15:00,56.2,46.9,30.11,North,0,0.2,1.8,71,0.00,,,0.00,WUHU216HW,2013-07-27 12:15:00,
2013-07-27 05:20:00,56.2,47.3,30.11,NNE,23,0.4,1.6,72,0.00,,,0.00,WUHU216HW,2013-07-27 12:20:00,
2013-07-27 05:25:00,56.2,46.9,30.11,North,0,0.4,0.7,71,0.00,,,0.00,WUHU216HW,2013-07-27 12:25:00,
2013-07-27 05:30:00,56.2,46.5,30.11,North,0,0.0,2.5,70,0.00,,,0.00,WUHU216HW,2013-07-27 12:30:00,
2013-07-27 05:35:00,56.2,46.5,30.11,NNW,338,0.0,2.5,70,0.00,,,0.00,WUHU216HW,2013-07-27 12:35:00,
2013-07-27 05:40:00,56.2,46.2,30.11,NNW,338,0.0,1.6,69,0.00,,,0.00,WUHU216HW,2013-07-27 12:40:00,
2013-07-27 05:45:00,56.0,45.5,30.12,NNW,338,0.0,0.2,68,0.00,,,0.00,WUHU216HW,2013-07-27 12:45:00,
2013-07-27 05:50:00,56.0,45.5,30.11,NNW,338,0.0,0.0,68,0.00,,,0.00,WUHU216HW,2013-07-27 12:50:00,
2013-07-27 05:55:00,55.8,45.8,30.11,NNW,338,0.2,0.2,69,0.00,,,0.00,WUHU216HW,2013-07-27 12:55:00,
2013-07-27 06:00:00,55.6,46.1,30.11,NW,315,0.0,0.2,70,0.00,,,0.00,WUHU216HW,2013-07-27 13:00:00,
2013-07-27 06:05:00,55.4,46.3,30.12,NNW,338,0.2,0.2,71,0.00,,,0.00,WUHU216HW,2013-07-27 13:05:00,
2013-07-27 06:10:00,55.4,46.9,30.12,NNW,338,0.0,0.2,73,0.00,,,0.00,WUHU216HW,2013-07-27 13:10:00,
2013-07-27 06:15:00,55.4,46.9,30.12,NNW,338,0.4,0.4,73,0.00,,,0.00,WUHU216HW,2013-07-27 13:15:00,
2013-07-27 06:20:00,55.4,47.3,30.12,NNW,338,0.0,0.7,74,0.00,,,0.00,WUHU216HW,2013-07-27 13:20:00,
2013-07-27 06:25:00,55.6,47.8,30.12,North,0,0.4,1.1,75,0.00,,,0.00,WUHU216HW,2013-07-27 13:25:00,
2013-07-27 06:30:00,55.8,47.6,30.12,SW,225,0.9,2.0,74,0.00,,,0.00,WUHU216HW,2013-07-27 13:30:00,
2013-07-27 06:35:00,55.8,47.3,30.12,NNW,338,0.2,2.0,73,0.00,,,0.00,WUHU216HW,2013-07-27 13:35:00,
2013-07-27 06:40:00,56.2,47.6,30.12,NNW,338,0.0,1.1,73,0.00,,,0.00,WUHU216HW,2013-07-27 13:40:00,
2013-07-27 06:45:00,56.3,47.8,30.12,NNE,23,0.2,1.1,73,0.00,,,0.00,WUHU216HW,2013-07-27 13:45:00,
2013-07-27 06:50:00,56.7,48.1,30.12,NNE,23,1.3,1.3,73,0.00,,,0.00,WUHU216HW,2013-07-27 13:50:00,
2013-07-27 06:55:00,57.1,48.4,30.12,WNW,293,0.2,1.3,73,0.00,,,0.00,WUHU216HW,2013-07-27 13:55:00,
2013-07-27 07:00:00,57.4,48.8,30.12,NNW,338,0.2,1.8,73,0.00,,,0.00,WUHU216HW,2013-07-27 14:00:00,
2013-07-27 07:05:00,57.8,48.8,30.12,West,270,0.2,1.8,72,0.00,,,0.00,WUHU216HW,2013-07-27 14:05:00,
2013-07-27 07:10:00,58.1,49.1,30.12,NNE,23,0.7,1.6,72,0.00,,,0.00,WUHU216HW,2013-07-27 14:10:00,
2013-07-27 07:15:00,58.7,49.3,30.12,WNW,293,0.4,1.8,71,0.00,,,0.00,WUHU216HW,2013-07-27 14:15:00,
2013-07-27 07:20:00,58.7,49.3,30.12,NNW,338,0.4,1.8,71,0.00,,,0.00,WUHU216HW,2013-07-27 14:20:00,
2013-07-27 07:25:00,58.9,49.1,30.12,North,0,2.5,2.5,70,0.00,,,0.00,WUHU216HW,2013-07-27 14:25:00,
2013-07-27 07:30:00,58.7,49.3,30.12,North,0,0.4,2.5,71,0.00,,,0.00,WUHU216HW,2013-07-27 14:30:00,
2013-07-27 07:35:00,59.0,49.3,30.12,NNE,23,0.4,2.5,70,0.00,,,0.00,WUHU216HW,2013-07-27 14:35:00,
2013-07-27 07:40:00,59.4,49.7,30.12,North,0,0.0,1.1,70,0.00,,,0.00,WUHU216HW,2013-07-27 14:40:00,
2013-07-27 07:45:00,59.8,50.0,30.12,WNW,293,1.1,1.1,70,0.00,,,0.00,WUHU216HW,2013-07-27 14:45:00,
2013-07-27 07:50:00,59.9,50.2,30.12,NNW,338,0.2,1.8,70,0.00,,,0.00,WUHU216HW,2013-07-27 14:50:00,
2013-07-27 07:55:00,60.1,50.0,30.12,NW,315,0.2,1.8,69,0.00,,,0.00,WUHU216HW,2013-07-27 14:55:00,
2013-07-27 08:00:00,60.7,50.5,30.12,NNW,338,0.4,0.9,69,0.00,,,0.00,WUHU216HW,2013-07-27 15:00:00,
2013-07-27 08:05:00,60.8,50.7,30.12,NNW,338,0.2,0.9,69,0.00,,,0.00,WUHU216HW,2013-07-27 15:05:00,
2013-07-27 08:10:00,61.0,50.5,30.12,NW,315,1.1,1.1,68,0.00,,,0.00,WUHU216HW,2013-07-27 15:10:00,
2013-07-27 08:15:00,61.2,51.0,30.12,NNW,338,0.2,1.1,69,0.00,,,0.00,WUHU216HW,2013-07-27 15:15:00,
2013-07-27 08:20:00,61.6,50.9,30.12,North,0,5.4,5.4,68,0.00,,,0.00,WUHU216HW,2013-07-27 15:20:00,
2013-07-27 08:25:00,61.6,50.5,30.12,North,0,1.6,5.4,67,0.00,,,0.00,WUHU216HW,2013-07-27 15:25:00,
2013-07-27 08:30:00,61.6,50.5,30.12,NNE,23,1.1,5.4,67,0.00,,,0.00,WUHU216HW,2013-07-27 15:30:00,
2013-07-27 08:35:00,61.7,50.7,30.12,North,0,0.7,4.7,67,0.00,,,0.00,WUHU216HW,2013-07-27 15:35:00,
2013-07-27 08:40:00,62.1,50.6,30.12,NNE,23,4.3,4.3,66,0.00,,,0.00,WUHU216HW,2013-07-27 15:40:00,
2013-07-27 08:45:00,62.3,50.3,30.12,NE,45,2.2,4.3,65,0.00,,,0.00,WUHU216HW,2013-07-27 15:45:00,
2013-07-27 08:50:00,62.5,50.5,30.12,NE,45,2.7,4.3,65,0.00,,,0.00,WUHU216HW,2013-07-27 15:50:00,
2013-07-27 08:55:00,62.6,50.7,30.12,NNW,338,1.1,4.7,65,0.00,,,0.00,WUHU216HW,2013-07-27 15:55:00,
2013-07-27 09:00:00,62.8,50.9,30.12,North,0,0.7,5.8,65,0.00,,,0.00,WUHU216HW,2013-07-27 16:00:00,
2013-07-27 09:05:00,63.0,51.0,30.12,NNE,23,1.1,5.8,65,0.00,,,0.00,WUHU216HW,2013-07-27 16:05:00,
2013-07-27 09:10:00,63.4,51.4,30.12,NNE,23,1.8,4.3,65,0.00,,,0.00,WUHU216HW,2013-07-27 16:10:00,
2013-07-27 09:15:00,63.5,50.7,30.12,North,0,2.2,3.6,63,0.00,,,0.00,WUHU216HW,2013-07-27 16:15:00,
2013-07-27 09:20:00,63.9,51.0,30.12,NNW,338,2.5,7.2,63,0.00,,,0.00,WUHU216HW,2013-07-27 16:20:00,
2013-07-27 09:25:00,64.1,51.2,30.12,NNE,23,1.8,7.2,63,0.00,,,0.00,WUHU216HW,2013-07-27 16:25:00,
2013-07-27 09:30:00,64.4,51.1,30.12,WNW,293,0.7,6.5,62,0.00,,,0.00,WUHU216HW,2013-07-27 16:30:00,
2013-07-27 09:35:00,64.6,50.9,30.12,WNW,293,2.9,6.5,61,0.00,,,0.00,WUHU216HW,2013-07-27 16:35:00,
2013-07-27 09:40:00,64.6,51.3,30.12,NW,315,1.6,4.0,62,0.00,,,0.00,WUHU216HW,2013-07-27 16:40:00,
2013-07-27 09:45:00,64.8,51.5,30.11,NNE,23,4.0,6.3,62,0.00,,,0.00,WUHU216HW,2013-07-27 16:45:00,
2013-07-27 09:50:00,65.2,51.4,30.12,ENE,68,1.1,6.3,61,0.00,,,0.00,WUHU216HW,2013-07-27 16:50:00,
2013-07-27 09:55:00,65.7,51.5,30.11,West,270,1.3,4.0,60,0.00,,,0.00,WUHU216HW,2013-07-27 16:55:00,
2013-07-27 10:00:00,65.9,51.2,30.11,NW,315,1.8,5.1,59,0.00,,,0.00,WUHU216HW,2013-07-27 17:00:00,
2013-07-27 10:05:00,66.2,50.6,30.11,North,0,2.5,5.1,57,0.00,,,0.00,WUHU216HW,2013-07-27 17:05:00,
2013-07-27 10:10:00,66.2,50.0,30.11,NNE,23,3.4,4.0,56,0.00,,,0.00,WUHU216HW,2013-07-27 17:10:00,
2013-07-27 10:15:00,66.2,50.6,30.11,NNE,23,1.6,4.0,57,0.00,,,0.00,WUHU216HW,2013-07-27 17:15:00,
2013-07-27 10:20:00,66.8,51.0,30.11,NNE,23,2.7,5.6,57,0.00,,,0.00,WUHU216HW,2013-07-27 17:20:00,
2013-07-27 10:25:00,67.1,51.4,30.11,NNE,23,2.5,5.6,57,0.00,,,0.00,WUHU216HW,2013-07-27 17:25:00,
2013-07-27 10:30:00,67.3,51.0,30.10,NNW,338,3.1,4.7,56,0.00,,,0.00,WUHU216HW,2013-07-27 17:30:00,
2013-07-27 10:35:00,67.7,50.4,30.10,SW,225,1.1,4.7,54,0.00,,,0.00,WUHU216HW,2013-07-27 17:35:00,
2013-07-27 10:40:00,67.9,50.6,30.10,WNW,293,0.7,4.9,54,0.00,,,0.00,WUHU216HW,2013-07-27 17:40:00,
2013-07-27 10:45:00,68.0,50.8,30.10,WSW,248,1.1,4.9,54,0.00,,,0.00,WUHU216HW,2013-07-27 17:45:00,
2013-07-27 10:50:00,68.4,50.6,30.09,ENE,68,0.7,3.8,53,0.00,,,0.00,WUHU216HW,2013-07-27 17:50:00,
2013-07-27 10:55:00,68.8,51.4,30.09,North,0,0.4,3.8,54,0.00,,,0.00,WUHU216HW,2013-07-27 17:55:00,
2013-07-27 11:00:00,69.3,50.4,30.09,NNE,23,2.5,4.0,51,0.00,,,0.00,WUHU216HW,2013-07-27 18:00:00,
2013-07-27 11:05:00,69.3,50.4,30.09,NNW,338,0.9,4.0,51,0.00,,,0.00,WUHU216HW,2013-07-27 18:05:00,
2013-07-27 11:10:00,69.3,50.4,30.09,NE,45,1.6,4.7,51,0.00,,,0.00,WUHU216HW,2013-07-27 18:10:00,
2013-07-27 11:15:00,69.7,50.8,30.09,North,0,2.0,4.7,51,0.00,,,0.00,WUHU216HW,2013-07-27 18:15:00,
2013-07-27 11:20:00,70.2,49.5,30.09,NNE,23,4.3,4.3,48,0.00,,,0.00,WUHU216HW,2013-07-27 18:20:00,
2013-07-27 11:25:00,70.2,49.5,30.09,NE,45,0.9,4.3,48,0.00,,,0.00,WUHU216HW,2013-07-27 18:25:00,
2013-07-27 11:30:00,70.4,49.7,30.09,North,0,2.5,4.3,48,0.00,,,0.00,WUHU216HW,2013-07-27 18:30:00,
2013-07-27 11:35:00,70.7,50.1,30.08,NW,315,0.7,4.3,48,0.00,,,0.00,WUHU216HW,2013-07-27 18:35:00,
2013-07-27 11:40:00,70.9,50.2,30.08,NNW,338,1.8,2.9,48,0.00,,,0.00,WUHU216HW,2013-07-27 18:40:00,
2013-07-27 11:45:00,71.1,50.3,30.08,North,0,5.4,6.5,48,0.00,,,0.00,WUHU216HW,2013-07-27 18:45:00,
2013-07-27 11:50:00,71.6,49.7,30.08,West,270,0.4,6.5,46,0.00,,,0.00,WUHU216HW,2013-07-27 18:50:00,
2013-07-27 11:55:00,72.0,49.4,30.08,NE,45,1.3,5.4,45,0.00,,,0.00,WUHU216HW,2013-07-27 18:55:00,
2013-07-27 12:00:00,72.2,49.5,30.08,NW,315,0.2,5.6,45,0.00,,,0.00,WUHU216HW,2013-07-27 19:00:00,
2013-07-27 12:05:00,72.4,49.2,30.08,NNE,23,2.5,5.6,44,0.00,,,0.00,WUHU216HW,2013-07-27 19:05:00,
2013-07-27 12:10:00,72.4,49.2,30.08,WSW,248,0.4,5.4,44,0.00,,,0.00,WUHU216HW,2013-07-27 19:10:00,
2013-07-27 12:15:00,72.9,47.3,30.09,ESE,113,5.8,5.8,40,0.00,,,0.00,WUHU216HW,2013-07-27 19:15:00,
2013-07-27 12:20:00,73.1,47.3,30.08,NE,45,3.4,5.8,40,0.00,,,0.00,WUHU216HW,2013-07-27 19:20:00,
2013-07-27 12:25:00,73.4,48.3,30.08,NNE,23,3.1,5.1,41,0.00,,,0.00,WUHU216HW,2013-07-27 19:25:00,
2013-07-27 12:30:00,73.8,48.6,30.07,NNE,23,2.5,4.0,41,0.00,,,0.00,WUHU216HW,2013-07-27 19:30:00,
2013-07-27 12:35:00,74.3,49.7,30.07,North,0,4.0,6.3,42,0.00,,,0.00,WUHU216HW,2013-07-27 19:35:00,
2013-07-27 12:40:00,74.5,49.3,30.07,East,90,0.4,7.8,41,0.00,,,0.00,WUHU216HW,2013-07-27 19:40:00,
2013-07-27 12:45:00,74.7,49.4,30.07,North,0,2.9,7.8,41,0.00,,,0.00,WUHU216HW,2013-07-27 19:45:00,
2013-07-27 12:50:00,75.2,49.3,30.07,NNE,23,3.4,5.1,40,0.00,,,0.00,WUHU216HW,2013-07-27 19:50:00,
2013-07-27 12:55:00,75.6,50.2,30.07,North,0,1.6,5.1,41,0.00,,,0.00,WUHU216HW,2013-07-27 19:55:00,
2013-07-27 13:00:00,76.0,49.2,30.06,NW,315,1.1,4.3,39,0.00,,,0.00,WUHU216HW,2013-07-27 20:00:00,
2013-07-27 13:05:00,76.3,48.1,30.06,NNE,23,3.6,4.7,37,0.00,,,0.00,WUHU216HW,2013-07-27 20:05:00,
2013-07-27 13:10:00,76.5,46.7,30.06,NW,315,1.1,4.7,35,0.00,,,0.00,WUHU216HW,2013-07-27 20:10:00,
2013-07-27 13:15:00,76.9,45.5,30.06,NNE,23,3.6,5.8,33,0.00,,,0.00,WUHU216HW,2013-07-27 20:15:00,
2013-07-27 13:20:00,77.0,49.4,30.05,NNW,338,1.8,5.8,38,0.00,,,0.00,WUHU216HW,2013-07-27 20:20:00,
2013-07-27 13:25:00,77.8,50.0,30.05,WSW,248,0.9,4.3,38,0.00,,,0.00,WUHU216HW,2013-07-27 20:25:00,
2013-07-27 13:30:00,78.1,51.1,30.05,West,270,1.8,4.7,39,0.00,,,0.00,WUHU216HW,2013-07-27 20:30:00,
2013-07-27 13:35:00,78.1,49.6,30.05,WSW,248,0.9,4.7,37,0.00,,,0.00,WUHU216HW,2013-07-27 20:35:00,
2013-07-27 13:40:00,78.7,49.3,30.05,NE,45,1.6,5.8,36,0.00,,,0.00,WUHU216HW,2013-07-27 20:40:00,
2013-07-27 13:45:00,78.8,45.6,30.05,NNE,23,5.8,5.8,31,0.00,,,0.00,WUHU216HW,2013-07-27 20:45:00,
2013-07-27 13:50:00,79.0,45.7,30.04,NE,45,3.4,5.8,31,0.00,,,0.00,WUHU216HW,2013-07-27 20:50:00,
2013-07-27 13:55:00,79.2,47.4,30.04,NNE,23,2.0,6.0,33,0.00,,,0.00,WUHU216HW,2013-07-27 20:55:00,
2013-07-27 13:59:00,78.8,47.2,30.04,SE,135,4.3,7.8,33,0.00,,,0.00,WUHU216HW,2013-07-27 20:59:00,
2013-07-27 14:04:00,78.8,46.4,30.04,WNW,293,3.4,7.8,32,0.00,,,0.00,WUHU216HW,2013-07-27 21:04:00,
2013-07-27 14:09:00,79.4,46.1,30.04,West,270,1.3,4.9,31,0.00,,,0.00,WUHU216HW,2013-07-27 21:09:00,
2013-07-27 14:14:00,80.3,45.1,30.03,NW,315,3.8,4.9,29,0.00,,,0.00,WUHU216HW,2013-07-27 21:14:00,
2013-07-27 14:19:00,80.3,44.0,30.03,NNE,23,3.6,5.4,28,0.00,,,0.00,WUHU216HW,2013-07-27 21:19:00,
2013-07-27 14:24:00,79.9,44.7,30.03,NNE,23,2.7,5.4,29,0.00,,,0.00,WUHU216HW,2013-07-27 21:24:00,
2013-07-27 14:29:00,80.5,45.3,30.03,NE,45,3.6,5.4,29,0.00,,,0.00,WUHU216HW,2013-07-27 21:29:00,
2013-07-27 14:34:00,80.5,44.2,30.03,SW,225,4.3,6.7,28,0.00,,,0.00,WUHU216HW,2013-07-27 21:34:00,
2013-07-27 14:39:00,81.0,47.5,30.02,NNW,338,1.8,6.7,31,0.00,,,0.00,WUHU216HW,2013-07-27 21:39:00,
2013-07-27 14:44:00,81.5,45.1,30.02,North,0,5.1,6.0,28,0.00,,,0.00,WUHU216HW,2013-07-27 21:44:00,
2013-07-27 14:49:00,81.4,44.9,30.02,ENE,68,1.6,6.0,28,0.00,,,0.00,WUHU216HW,2013-07-27 21:49:00,
2013-07-27 14:54:00,82.1,44.5,30.02,NW,315,1.3,5.6,27,0.00,,,0.00,WUHU216HW,2013-07-27 21:54:00,
2013-07-27 14:59:00,82.4,43.8,30.02,WSW,248,2.9,5.6,26,0.00,,,0.00,WUHU216HW,2013-07-27 21:59:00,
2013-07-27 15:04:00,82.4,46.8,30.01,NNE,23,1.8,5.6,29,0.00,,,0.00,WUHU216HW,2013-07-27 22:04:00,
2013-07-27 15:09:00,82.4,43.8,30.01,North,0,3.4,5.6,26,0.00,,,0.00,WUHU216HW,2013-07-27 22:09:00,
2013-07-27 15:14:00,82.1,45.6,30.01,North,0,3.1,6.5,28,0.00,,,0.00,WUHU216HW,2013-07-27 22:14:00,
2013-07-27 15:19:00,82.1,45.6,30.01,NNE,23,0.4,6.5,28,0.00,,,0.00,WUHU216HW,2013-07-27 22:19:00,
2013-07-27 15:24:00,82.6,42.9,30.00,NNE,23,3.6,6.3,25,0.00,,,0.00,WUHU216HW,2013-07-27 22:24:00,
2013-07-27 15:29:00,82.4,43.8,30.00,North,0,1.3,6.5,26,0.00,,,0.00,WUHU216HW,2013-07-27 22:29:00,
2013-07-27 15:34:00,82.4,44.7,30.00,NNE,23,3.4,6.5,27,0.00,,,0.00,WUHU216HW,2013-07-27 22:34:00,
2013-07-27 15:39:00,83.2,47.5,29.99,SSW,203,1.8,4.7,29,0.00,,,0.00,WUHU216HW,2013-07-27 22:39:00,
2013-07-27 15:44:00,83.7,48.0,29.99,North,0,2.5,5.4,29,0.00,,,0.00,WUHU216HW,2013-07-27 22:44:00,
2013-07-27 15:49:00,83.9,48.2,29.99,NE,45,4.7,5.4,29,0.00,,,0.00,WUHU216HW,2013-07-27 22:49:00,
2013-07-27 15:54:00,83.2,47.5,29.99,WSW,248,1.3,5.1,29,0.00,,,0.00,WUHU216HW,2013-07-27 22:54:00,
2013-07-27 15:59:00,83.3,48.7,29.99,NW,315,1.8,5.1,30,0.00,,,0.00,WUHU216HW,2013-07-27 22:59:00,
2013-07-27 16:04:00,83.5,49.7,29.99,North,0,2.7,5.4,31,0.00,,,0.00,WUHU216HW,2013-07-27 23:04:00,
2013-07-27 16:09:00,83.3,48.7,29.99,WNW,293,0.9,6.9,30,0.00,,,0.00,WUHU216HW,2013-07-27 23:09:00,
2013-07-27 16:14:00,83.3,49.5,29.99,NNE,23,0.9,6.9,31,0.00,,,0.00,WUHU216HW,2013-07-27 23:14:00,
2013-07-27 16:19:00,83.3,49.5,29.98,NE,45,1.1,5.4,31,0.00,,,0.00,WUHU216HW,2013-07-27 23:19:00,
2013-07-27 16:24:00,83.2,48.5,29.98,NNE,23,3.1,5.4,30,0.00,,,0.00,WUHU216HW,2013-07-27 23:24:00,
2013-07-27 16:29:00,83.2,49.3,29.98,NNE,23,1.8,7.2,31,0.00,,,0.00,WUHU216HW,2013-07-27 23:29:00,
2013-07-27 16:34:00,83.2,49.3,29.98,NNE,23,5.1,7.2,31,0.00,,,0.00,WUHU216HW,2013-07-27 23:34:00,
2013-07-27 16:39:00,83.0,49.1,29.98,NNE,23,3.8,5.6,31,0.00,,,0.00,WUHU216HW,2013-07-27 23:39:00,
2013-07-27 16:44:00,82.8,49.0,29.97,NNE,23,3.1,6.3,31,0.00,,,0.00,WUHU216HW,2013-07-27 23:44:00,
2013-07-27 16:49:00,82.4,48.7,29.97,NE,45,0.9,6.3,31,0.00,,,0.00,WUHU216HW,2013-07-27 23:49:00,
2013-07-27 16:54:00,82.8,49.0,29.97,North,0,3.8,4.5,31,0.00,,,0.00,WUHU216HW,2013-07-27 23:54:00,
2013-07-27 16:59:00,82.8,50.6,29.97,NNE,23,1.8,4.0,33,0.00,,,0.00,WUHU216HW,2013-07-27 23:59:00,
2013-07-27 17:04:00,83.0,49.1,29.96,NW,315,3.4,6.3,31,0.00,,,0.00,WUHU216HW,2013-07-28 00:04:00,
2013-07-27 17:09:00,82.8,49.8,29.97,NNE,23,1.6,6.3,32,0.00,,,0.00,WUHU216HW,2013-07-28 00:09:00,
2013-07-27 17:14:00,82.6,49.6,29.96,North,0,0.7,5.8,32,0.00,,,0.00,WUHU216HW,2013-07-28 00:14:00,
2013-07-27 17:19:00,83.0,50.8,29.96,North,0,0.4,5.8,33,0.00,,,0.00,WUHU216HW,2013-07-28 00:19:00,
2013-07-27 17:24:00,83.0,50.0,29.96,NNW,338,1.1,4.5,32,0.00,,,0.00,WUHU216HW,2013-07-28 00:24:00,
2013-07-27 17:29:00,83.0,50.0,29.96,NNE,23,0.4,4.5,32,0.00,,,0.00,WUHU216HW,2013-07-28 00:29:00,
2013-07-27 17:34:00,83.0,50.8,29.96,ENE,68,0.7,5.4,33,0.00,,,0.00,WUHU216HW,2013-07-28 00:34:00,
2013-07-27 17:39:00,82.8,51.4,29.96,NNE,23,4.3,5.8,34,0.00,,,0.00,WUHU216HW,2013-07-28 00:39:00,
2013-07-27 17:44:00,82.3,51.7,29.96,NNE,23,1.1,6.3,35,0.00,,,0.00,WUHU216HW,2013-07-28 00:44:00,
2013-07-27 17:49:00,82.1,50.0,29.96,NNE,23,4.9,6.3,33,0.00,,,0.00,WUHU216HW,2013-07-28 00:49:00,
2013-07-27 17:54:00,81.7,51.2,29.96,North,0,5.6,5.6,35,0.00,,,0.00,WUHU216HW,2013-07-28 00:54:00,
2013-07-27 17:59:00,81.5,51.1,29.96,NNE,23,3.4,5.6,35,0.00,,,0.00,WUHU216HW,2013-07-28 00:59:00,
2013-07-27 18:04:00,81.2,51.6,29.95,ENE,68,2.5,5.8,36,0.00,,,0.00,WUHU216HW,2013-07-28 01:04:00,
2013-07-27 18:09:00,80.8,52.0,29.95,North,0,4.0,5.8,37,0.00,,,0.00,WUHU216HW,2013-07-28 01:09:00,
2013-07-27 18:14:00,80.6,51.8,29.95,NNE,23,3.1,5.4,37,0.00,,,0.00,WUHU216HW,2013-07-28 01:14:00,
2013-07-27 18:19:00,80.6,52.7,29.95,WNW,293,4.0,4.0,38,0.00,,,0.00,WUHU216HW,2013-07-28 01:19:00,
2013-07-27 18:24:00,80.3,52.3,29.95,North,0,4.7,4.7,38,0.00,,,0.00,WUHU216HW,2013-07-28 01:24:00,
2013-07-27 18:29:00,79.9,52.7,29.95,NW,315,3.4,8.1,39,0.00,,,0.00,WUHU216HW,2013-07-28 01:29:00,
2013-07-27 18:34:00,79.6,52.5,29.95,NE,45,3.8,8.1,39,0.00,,,0.00,WUHU216HW,2013-07-28 01:34:00,
2013-07-27 18:39:00,79.6,52.5,29.95,NNE,23,3.4,5.1,39,0.00,,,0.00,WUHU216HW,2013-07-28 01:39:00,
2013-07-27 18:44:00,79.2,52.9,29.95,SSW,203,6.3,6.3,40,0.00,,,0.00,WUHU216HW,2013-07-28 01:44:00,
2013-07-27 18:49:00,79.0,52.8,29.95,SE,135,0.2,6.3,40,0.00,,,0.00,WUHU216HW,2013-07-28 01:49:00,
2013-07-27 18:54:00,79.0,52.8,29.95,NNE,23,4.3,6.0,40,0.00,,,0.00,WUHU216HW,2013-07-28 01:54:00,
2013-07-27 18:59:00,78.5,52.8,29.95,NW,315,1.1,4.3,41,0.00,,,0.00,WUHU216HW,2013-07-28 01:59:00,
2013-07-27 19:04:00,78.7,53.7,29.95,NE,45,0.9,4.0,42,0.00,,,0.00,WUHU216HW,2013-07-28 02:04:00,
2013-07-27 19:09:00,78.7,53.7,29.95,North,0,0.0,4.0,42,0.00,,,0.00,WUHU216HW,2013-07-28 02:09:00,
2013-07-27 19:14:00,78.8,53.8,29.95,West,270,3.6,4.7,42,0.00,,,0.00,WUHU216HW,2013-07-28 02:14:00,
2013-07-27 19:19:00,78.5,54.1,29.95,WNW,293,0.4,4.7,43,0.00,,,0.00,WUHU216HW,2013-07-28 02:19:00,
2013-07-27 19:24:00,77.9,53.0,29.95,NNW,338,0.2,3.8,42,0.00,,,0.00,WUHU216HW,2013-07-28 02:24:00,
2013-07-27 19:29:00,77.8,53.5,29.95,NNW,338,0.2,3.8,43,0.00,,,0.00,WUHU216HW,2013-07-28 02:29:00,
2013-07-27 19:34:00,77.2,52.9,29.95,WNW,293,0.4,2.5,43,0.00,,,0.00,WUHU216HW,2013-07-28 02:34:00,
2013-07-27 19:39:00,76.5,52.9,29.95,NNE,23,0.4,3.1,44,0.00,,,0.00,WUHU216HW,2013-07-28 02:39:00,
2013-07-27 19:44:00,76.1,52.6,29.95,NNE,23,1.1,3.1,44,0.00,,,0.00,WUHU216HW,2013-07-28 02:44:00,
2013-07-27 19:49:00,75.8,52.3,29.95,NW,315,0.4,1.8,44,0.00,,,0.00,WUHU216HW,2013-07-28 02:49:00,
2013-07-27 19:54:00,75.2,52.4,29.95,North,0,1.1,2.7,45,0.00,,,0.00,WUHU216HW,2013-07-28 02:54:00,
2013-07-27 19:59:00,74.7,51.8,29.95,NW,315,0.7,2.7,45,0.00,,,0.00,WUHU216HW,2013-07-28 02:59:00,
2013-07-27 20:04:00,74.3,52.1,29.95,WSW,248,0.2,2.7,46,0.00,,,0.00,WUHU216HW,2013-07-28 03:04:00,
2013-07-27 20:09:00,74.0,51.8,29.95,NW,315,3.6,3.6,46,0.00,,,0.00,WUHU216HW,2013-07-28 03:09:00,
2013-07-27 20:14:00,73.4,51.8,29.95,North,0,1.1,3.6,47,0.00,,,0.00,WUHU216HW,2013-07-28 03:14:00,
2013-07-27 20:19:00,73.1,51.6,29.95,West,270,0.2,3.6,47,0.00,,,0.00,WUHU216HW,2013-07-28 03:19:00,
2013-07-27 20:24:00,72.7,51.9,29.95,WNW,293,0.7,2.5,48,0.00,,,0.00,WUHU216HW,2013-07-28 03:24:00,
2013-07-27 20:29:00,72.4,51.5,29.95,NNW,338,0.0,2.2,48,0.00,,,0.00,WUHU216HW,2013-07-28 03:29:00,
2013-07-27 20:34:00,72.0,51.1,29.95,NW,315,0.4,2.2,48,0.00,,,0.00,WUHU216HW,2013-07-28 03:34:00,
2013-07-27 20:39:00,71.6,51.4,29.95,NNW,338,0.4,1.3,49,0.00,,,0.00,WUHU216HW,2013-07-28 03:39:00,
2013-07-27 20:44:00,71.6,50.9,29.95,WNW,293,0.4,0.9,48,0.00,,,0.00,WUHU216HW,2013-07-28 03:44:00,
2013-07-27 20:49:00,71.5,50.7,29.95,WNW,293,0.0,0.7,48,0.00,,,0.00,WUHU216HW,2013-07-28 03:49:00,
2013-07-27 20:54:00,71.6,50.9,29.95,WNW,293,0.0,1.1,48,0.00,,,0.00,WUHU216HW,2013-07-28 03:54:00,
2013-07-27 20:59:00,71.3,51.1,29.96,WNW,293,0.0,1.1,49,0.00,,,0.00,WUHU216HW,2013-07-28 03:59:00,
2013-07-27 21:01:00,71.3,51.1,29.95,NW,315,0.4,1.1,49,0.00,,,0.00,WUHU216HW,2013-07-28 04:01:00,
2013-07-27 21:06:00,70.9,50.8,29.96,WNW,293,0.2,1.6,49,0.00,,,0.00,WUHU216HW,2013-07-28 04:06:00,
2013-07-27 21:11:00,70.6,50.5,29.96,NNW,338,0.4,1.6,49,0.00,,,0.00,WUHU216HW,2013-07-28 04:11:00,
2013-07-27 21:16:00,70.2,50.1,29.96,WNW,293,0.4,0.4,49,0.00,,,0.00,WUHU216HW,2013-07-28 04:16:00,
2013-07-27 21:21:00,70.0,51.0,29.96,NW,315,0.0,0.4,51,0.00,,,0.00,WUHU216HW,2013-07-28 04:21:00,
2013-07-27 21:26:00,69.3,50.0,29.96,NW,315,0.0,0.4,50,0.00,,,0.00,WUHU216HW,2013-07-28 04:26:00,
2013-07-27 21:31:00,68.9,49.6,29.96,NW,315,0.0,0.2,50,0.00,,,0.00,WUHU216HW,2013-07-28 04:31:00,
2013-07-27 21:36:00,68.6,49.2,29.96,NW,315,0.0,0.0,50,0.00,,,0.00,WUHU216HW,2013-07-28 04:36:00,
2013-07-27 21:41:00,68.4,49.2,29.96,WSW,248,0.0,0.9,50,0.00,,,0.00,WUHU216HW,2013-07-28 04:41:00,
2013-07-27 21:46:00,68.0,48.8,29.96,WSW,248,0.0,0.9,50,0.00,,,0.00,WUHU216HW,2013-07-28 04:46:00,
2013-07-27 21:51:00,67.7,49.0,29.96,WSW,248,0.0,0.2,51,0.00,,,0.00,WUHU216HW,2013-07-28 04:51:00,
2013-07-27 21:56:00,67.5,48.8,29.96,WSW,248,0.0,0.0,51,0.00,,,0.00,WUHU216HW,2013-07-28 04:56:00,
2013-07-27 22:01:00,67.1,49.0,29.96,WSW,248,0.0,0.0,52,0.00,,,0.00,WUHU216HW,2013-07-28 05:01:00,
2013-07-27 22:06:00,66.6,49.0,29.97,South,180,0.0,0.0,53,0.00,,,0.00,WUHU216HW,2013-07-28 05:06:00,
2013-07-27 22:11:00,66.4,48.8,29.96,South,180,0.0,0.0,53,0.00,,,0.00,WUHU216HW,2013-07-28 05:11:00,
2013-07-27 22:16:00,66.2,48.6,29.97,South,180,0.0,0.0,53,0.00,,,0.00,WUHU216HW,2013-07-28 05:16:00,
2013-07-27 22:21:00,66.1,48.4,29.97,South,180,0.0,0.0,53,0.00,,,0.00,WUHU216HW,2013-07-28 05:21:00,
2013-07-27 22:26:00,65.9,48.8,29.97,SSE,158,0.0,0.0,54,0.00,,,0.00,WUHU216HW,2013-07-28 05:26:00,
2013-07-27 22:31:00,65.7,48.6,29.98,SSE,158,0.0,0.0,54,0.00,,,0.00,WUHU216HW,2013-07-28 05:31:00,
2013-07-27 22:36:00,65.5,48.9,29.98,NE,45,0.0,0.0,55,0.00,,,0.00,WUHU216HW,2013-07-28 05:36:00,
2013-07-27 22:41:00,65.2,49.0,29.98,NE,45,0.0,0.0,56,0.00,,,0.00,WUHU216HW,2013-07-28 05:41:00,
2013-07-27 22:46:00,64.4,49.8,29.98,NNE,23,0.0,3.8,59,0.00,,,0.00,WUHU216HW,2013-07-28 05:46:00,
2013-07-27 22:51:00,64.3,49.1,29.98,WNW,293,0.2,3.8,58,0.00,,,0.00,WUHU216HW,2013-07-28 05:51:00,
2013-07-27 22:56:00,64.1,48.4,29.98,NNW,338,0.0,1.3,57,0.00,,,0.00,WUHU216HW,2013-07-28 05:56:00,
2013-07-27 23:01:00,64.1,48.4,29.98,NNW,338,0.0,0.2,57,0.00,,,0.00,WUHU216HW,2013-07-28 06:01:00,
2013-07-27 23:06:00,63.7,50.1,29.98,North,0,0.4,0.7,61,0.00,,,0.00,WUHU216HW,2013-07-28 06:06:00,
2013-07-27 23:11:00,63.0,49.8,29.98,North,0,0.4,0.7,62,0.00,,,0.00,WUHU216HW,2013-07-28 06:11:00,
2013-07-27 23:15:00,62.6,49.1,29.99,North,0,0.0,0.4,61,0.00,,,0.00,WUHU216HW,2013-07-28 06:15:00,
2013-07-27 23:20:00,62.5,48.9,29.99,North,0,0.0,0.4,61,0.00,,,0.00,WUHU216HW,2013-07-28 06:20:00,
2013-07-27 23:25:00,62.5,48.9,29.99,North,0,0.0,0.4,61,0.00,,,0.00,WUHU216HW,2013-07-28 06:25:00,
2013-07-27 23:30:00,62.3,48.2,29.99,North,0,0.0,0.0,60,0.00,,,0.00,WUHU216HW,2013-07-28 06:30:00,
2013-07-27 23:35:00,62.3,48.2,29.99,SSE,158,0.0,0.4,60,0.00,,,0.00,WUHU216HW,2013-07-28 06:35:00,
2013-07-27 23:40:00,61.9,48.3,29.99,SSE,158,0.0,0.4,61,0.00,,,0.00,WUHU216HW,2013-07-28 06:40:00,
2013-07-27 23:45:00,61.9,48.3,29.99,SSE,158,0.0,0.0,61,0.00,,,0.00,WUHU216HW,2013-07-28 06:45:00,
2013-07-27 23:50:00,61.7,48.3,29.99,SSE,158,0.0,0.0,61,0.00,,,0.00,WUHU216HW,2013-07-28 06:50:00,
2013-07-27 23:55:00,61.4,47.9,29.99,SSE,158,0.0,0.0,61,0.00,,,0.00,WUHU216HW,2013-07-28 06:55:00,